La Vinya d'en Daniel





Hora UTC 20:05
Temperatura 19.7 ºC
Humitat 84.0 %
Pressió 1020.1 hPa
Pluja 0.0 mm
Velocitat vent 3.2 km/h
Direcció vent W

Dades diàries 2022-08-19



Hora UTC (hivern +1h; estiu +2h)
Temperatura (ºC) Humitat (%) Pressió (hPa) Velocitat vent (km/h) Precipitació (mm)
Hora UTC Aire Humitat Pressió Vel. Dir. Vel. Max Dir. Intent. màx 5 min.
00:05 15.2 86.0 1018.2 4.8 WNW 4.8 0.0
00:10 15.1 86.0 1018.2 6.4 WNW 8.0 0.0
00:15 15.1 86.0 1018.1 6.4 WSW 8.0 0.0
00:20 15.1 86.0 1018.1 3.2 W 8.0 0.0
00:25 15.1 86.0 1018.1 3.2 WNW 9.7 0.0
00:30 15.0 86.0 1018.1 3.2 NW 6.4 0.0
00:35 14.9 86.0 1018.1 1.6 W 11.3 0.0
00:40 14.8 86.0 1018.0 8.0 WNW 11.3 0.0
00:45 15.0 86.0 1018.1 1.6 WNW 11.3 0.0
00:50 15.1 86.0 1018.2 0.0 W 11.3 0.0
00:55 15.1 86.0 1018.2 4.8 WNW 8.0 0.0
01:00 15.0 86.0 1018.1 3.2 WNW 11.3 0.0
01:05 15.0 86.0 1018.0 4.8 WNW 11.3 0.0
01:10 14.9 86.0 1018.0 1.6 W 11.3 0.0
01:15 14.8 86.0 1018.0 4.8 W 11.3 0.0
01:20 14.8 86.0 1017.9 4.8 NW 11.3 0.0
01:25 14.7 86.0 1018.0 4.8 W 11.3 0.0
01:30 14.6 86.0 1017.9 4.8 NNW 8.0 0.0
01:35 14.7 87.0 1017.9 0.0 WNW 8.0 0.0
01:40 14.7 86.0 1017.8 3.2 W 8.0 0.0
01:45 14.6 86.0 1017.8 6.4 WNW 11.3 0.0
01:50 14.6 86.0 1017.9 4.8 NW 11.3 0.0
01:55 14.5 86.0 1018.0 1.6 WNW 8.0 0.0
02:00 14.5 86.0 1018.1 4.8 W 11.3 0.0
02:05 14.4 86.0 1018.1 3.2 WNW 9.7 0.0
02:10 14.4 86.0 1018.1 4.8 W 12.9 0.0
02:15 14.7 85.0 1018.1 11.3 W 12.9 0.0
02:20 14.9 85.0 1018.1 6.4 W 12.9 0.0
02:20 14.8 85.0 1018.1 6.4 W 14.5 0.0
02:30 14.6 85.0 1018.1 11.3 WSW 16.1 0.0
02:35 14.7 86.0 1018.1 12.9 W 17.7 0.0
02:40 15.0 85.0 1018.1 3.2 WSW 17.7 0.0
02:45 15.2 85.0 1018.0 1.6 WSW 14.5 0.0
02:50 15.1 85.0 1017.9 3.2 W 8.0 0.0
02:55 15.0 85.0 1017.9 0.0 W 8.0 0.0
03:00 14.9 85.0 1018.0 0.0 NNW 3.2 0.0
03:05 14.9 85.0 1018.0 6.4 W 6.4 0.0
03:10 14.9 85.0 1017.9 4.8 W 6.4 0.0
03:15 14.9 85.0 1018.0 9.7 W 12.9 0.0
03:20 14.9 86.0 1018.1 8.0 WNW 12.9 0.0
03:25 15.2 85.0 1018.1 4.8 WSW 12.9 0.0
03:30 15.4 85.0 1018.0 1.6 WSW 12.9 0.0
03:35 15.2 84.0 1018.1 1.6 N 11.3 0.0
03:40 14.9 85.0 1018.1 3.2 NNW 9.7 0.0
03:45 15.0 85.0 1018.2 0.0 WNW 9.7 0.0
03:50 15.1 85.0 1018.2 4.8 WSW 8.0 0.0
03:55 15.4 84.0 1018.3 0.0 W 8.0 0.0
04:00 15.6 83.0 1018.3 1.6 W 4.8 0.0
04:05 15.7 83.0 1018.3 0.0 W 4.8 0.0
04:10 15.7 83.0 1018.5 0.0 N 3.2 0.0
04:15 15.4 84.0 1018.5 0.0 NW 0.0 0.0
04:20 15.4 84.0 1018.7 0.0 WNW 0.0 0.0
04:25 15.6 83.0 1018.8 0.0 NW 0.0 0.0
04:30 15.6 83.0 1018.8 0.0 NW 0.0 0.0
04:35 15.8 83.0 1018.8 0.0 W 0.0 0.0
04:40 16.1 82.0 1018.9 0.0 NW 0.0 0.0
04:45 16.2 82.0 1018.9 0.0 WNW 0.0 0.0
04:50 16.3 81.0 1018.9 0.0 NW 0.0 0.0
04:55 16.1 80.0 1019.0 0.0 NNW 0.0 0.0
05:00 16.2 81.0 1019.0 0.0 W 0.0 0.0
05:05 16.2 81.0 1019.0 0.0 NW 0.0 0.0
05:10 15.7 81.0 1019.1 0.0 NW 0.0 0.0
05:15 15.5 82.0 1019.1 0.0 NW 0.0 0.0
05:20 15.6 82.0 1019.1 4.8 WNW 9.7 0.0
05:25 15.8 82.0 1019.1 3.2 W 9.7 0.0
05:30 15.7 82.0 1019.1 0.0 NW 8.0 0.0
05:35 15.6 82.0 1019.2 0.0 W 3.2 0.0
05:40 15.8 83.0 1019.4 0.0 NNW 6.4 0.0
05:45 15.9 83.0 1019.3 3.2 NW 6.4 0.0
05:50 15.8 82.0 1019.3 4.8 WNW 9.7 0.0
05:55 16.0 82.0 1019.3 0.0 WNW 9.7 0.0
06:00 16.3 81.0 1019.3 0.0 WNW 3.2 0.0
06:05 16.6 81.0 1019.3 0.0 WSW 1.6 0.0
06:10 16.7 81.0 1019.3 0.0 W 4.8 0.0
06:15 16.8 81.0 1019.3 0.0 NW 9.7 0.0
06:20 16.9 83.0 1019.2 0.0 NW 9.7 0.0
06:25 17.0 83.0 1019.2 4.8 W 4.8 0.0
06:30 17.1 81.0 1019.2 0.0 WNW 6.4 0.0
06:35 17.2 81.0 1019.3 0.0 WNW 6.4 0.0
06:40 17.7 84.0 1019.3 0.0 WNW 6.4 0.0
06:45 18.3 83.0 1019.4 0.0 WNW 0.0 0.0
06:50 18.4 81.0 1019.3 0.0 W 0.0 0.0
06:55 18.4 79.0 1019.5 0.0 W 0.0 0.0
07:00 18.6 77.0 1019.4 0.0 W 0.0 0.0
07:05 19.1 80.0 1019.4 0.0 NW 6.4 0.0
07:10 19.4 78.0 1019.4 0.0 NNW 6.4 0.0
07:15 19.7 77.0 1019.4 0.0 WSW 0.0 0.0
07:20 19.9 75.0 1019.6 0.0 W 0.0 0.0
07:25 20.2 75.0 1019.6 0.0 WNW 0.0 0.0
07:30 20.7 77.0 1019.6 0.0 WNW 0.0 0.0
07:35 20.9 74.0 1019.5 0.0 WNW 0.0 0.0
07:40 21.1 72.0 1019.4 0.0 WNW 0.0 0.0
07:45 21.6 73.0 1019.5 0.0 WNW 0.0 0.0
07:50 21.9 71.0 1019.4 0.0 WSW 0.0 0.0
07:55 22.3 68.0 1019.4 0.0 E 0.0 0.0
08:00 22.8 69.0 1019.4 0.0 E 0.0 0.0
08:05 23.3 67.0 1019.4 0.0 E 0.0 0.0
08:10 23.7 66.0 1019.5 0.0 E 0.0 0.0
08:15 24.0 63.0 1019.5 0.0 ENE 0.0 0.0
08:20 24.2 61.0 1019.4 0.0 SE 0.0 0.0
08:25 24.5 63.0 1019.4 0.0 SE 0.0 0.0
08:30 24.7 60.0 1019.3 0.0 SE 0.0 0.0
08:35 24.7 60.0 1019.4 0.0 SSE 0.0 0.0
08:40 24.4 63.0 1019.3 0.0 SSE 0.0 0.0
08:45 24.6 64.0 1019.5 0.0 SSE 0.0 0.0
08:50 24.9 64.0 1019.6 0.0 ESE 0.0 0.0
08:55 25.2 61.0 1019.5 0.0 E 0.0 0.0
09:00 25.5 61.0 1019.6 0.0 ESE 0.0 0.0
09:05 25.6 62.0 1019.6 0.0 E 0.0 0.0
09:10 25.6 62.0 1019.6 0.0 SE 0.0 0.0
09:15 25.5 61.0 1019.6 0.0 SE 0.0 0.0
09:20 25.1 61.0 1019.6 0.0 S 0.0 0.0
09:25 24.8 59.0 1019.5 0.0 SSE 0.0 0.0
09:30 24.6 61.0 1019.6 0.0 SE 0.0 0.0
09:35 24.9 66.0 1019.6 0.0 SSE 0.0 0.0
09:40 25.4 66.0 1019.6 0.0 ENE 0.0 0.0
09:45 25.6 63.0 1019.6 0.0 ESE 0.0 0.0
09:50 25.8 63.0 1019.6 0.0 SE 0.0 0.0
09:55 26.0 62.0 1019.6 0.0 E 0.0 0.0
10:00 26.0 60.0 1019.6 0.0 SE 0.0 0.0
10:05 26.0 59.0 1019.5 0.0 SE 0.0 0.0
10:10 26.1 62.0 1019.6 0.0 SE 0.0 0.0
10:15 26.3 60.0 1019.5 0.0 E 0.0 0.0
10:20 26.4 58.0 1019.5 0.0 SE 0.0 0.0
10:25 26.5 54.0 1019.4 1.6 SSE 6.4 0.0
10:30 26.6 54.0 1019.5 0.0 ENE 6.4 0.0
10:35 26.7 55.0 1019.5 3.2 SSE 8.0 0.0
10:40 26.7 57.0 1019.5 4.8 SSW 8.0 0.0
10:45 26.7 53.0 1019.5 0.0 SE 8.0 0.0
10:50 26.7 55.0 1019.5 0.0 SSE 11.3 0.0
10:50 26.6 51.0 1019.5 3.2 S 11.3 0.0
11:00 26.7 57.0 1019.5 0.0 ENE 9.7 0.0
11:05 26.7 55.0 1019.3 0.0 SE 9.7 0.0
11:10 26.9 55.0 1019.3 0.0 ENE 0.0 0.0
11:15 26.9 55.0 1019.3 0.0 E 0.0 0.0
11:20 27.0 55.0 1019.3 0.0 NE 0.0 0.0
11:25 27.1 53.0 1019.3 0.0 NE 0.0 0.0
11:30 27.2 51.0 1019.3 0.0 ESE 1.6 0.0
11:35 27.3 55.0 1019.3 0.0 SE 1.6 0.0
11:40 27.2 55.0 1019.3 0.0 SE 11.3 0.0
11:45 27.3 54.0 1019.3 0.0 E 11.3 0.0
11:50 27.5 54.0 1019.2 0.0 ENE 0.0 0.0
11:50 27.6 54.0 1019.2 0.0 SSE 1.6 0.0
12:00 27.7 54.0 1019.1 0.0 SSE 16.1 0.0
12:05 27.8 55.0 1019.0 0.0 SE 11.3 0.0
12:10 28.1 53.0 1018.9 0.0 SE 11.3 0.0
12:15 28.2 54.0 1019.1 0.0 E 1.6 0.0
12:20 28.4 52.0 1019.0 0.0 SSE 0.0 0.0
12:25 28.5 54.0 1018.9 0.0 S 9.7 0.0
12:30 28.7 52.0 1018.9 0.0 SSE 9.7 0.0
12:35 28.6 52.0 1018.9 0.0 SSE 1.6 0.0
12:40 28.6 56.0 1018.8 0.0 E 16.1 0.0
12:45 28.4 55.0 1018.8 0.0 ENE 16.1 0.0
12:50 28.4 53.0 1018.8 0.0 SSE 0.0 0.0
12:55 28.4 54.0 1018.9 0.0 SE 0.0 0.0
13:00 28.5 55.0 1018.9 0.0 ESE 4.8 0.0
13:05 28.5 54.0 1018.8 0.0 SSE 6.4 0.0
13:10 28.0 54.0 1018.8 0.0 SSE 17.7 0.0
13:15 28.3 58.0 1018.8 0.0 ESE 17.7 0.0
13:20 28.3 54.0 1018.9 0.0 E 9.7 0.0
13:25 28.6 55.0 1018.7 0.0 E 9.7 0.0
13:30 28.6 54.0 1018.7 0.0 ENE 16.1 0.0
13:35 28.5 55.0 1018.6 0.0 ENE 12.9 0.0
13:40 28.5 54.0 1018.7 0.0 SE 11.3 0.0
13:45 28.0 56.0 1018.7 0.0 SE 16.1 0.0
13:50 27.7 56.0 1018.6 0.0 ESE 16.1 0.0
13:55 27.7 57.0 1018.8 8.0 SE 9.7 0.0
14:00 27.6 56.0 1018.7 0.0 S 12.9 0.0
14:05 27.9 55.0 1018.7 0.0 S 14.5 0.0
14:10 28.1 55.0 1018.7 0.0 SSE 16.1 0.0
14:15 28.4 54.0 1018.7 17.7 S 22.5 0.0
14:20 28.2 54.0 1018.7 0.0 S 22.5 0.0
14:25 28.1 57.0 1018.8 6.4 SE 12.9 0.0
14:30 27.8 57.0 1018.8 0.0 SE 19.3 0.0
14:35 27.6 57.0 1018.7 0.0 SSE 19.3 0.0
14:40 27.6 58.0 1018.8 0.0 SSE 12.9 0.0
14:45 27.3 59.0 1018.8 0.0 SSE 12.9 0.0
14:50 27.1 60.0 1018.8 0.0 S 14.5 0.0
14:55 27.1 58.0 1018.6 0.0 ESE 14.5 0.0
15:00 27.0 60.0 1018.7 6.4 ENE 11.3 0.0
15:05 26.9 59.0 1018.7 0.0 SE 14.5 0.0
15:10 27.0 60.0 1018.6 0.0 E 12.9 0.0
15:15 27.3 58.0 1018.6 0.0 ESE 0.0 0.0
15:20 27.4 58.0 1018.5 0.0 ESE 0.0 0.0
15:25 27.4 59.0 1018.5 12.9 SSW 16.1 0.0
15:30 27.1 59.0 1018.4 6.4 S 16.1 0.0
15:35 27.1 59.0 1018.5 11.3 S 16.1 0.0
15:40 26.6 61.0 1018.7 0.0 S 16.1 0.0
15:45 26.3 62.0 1018.6 0.0 SSE 9.7 0.0
15:50 26.1 62.0 1018.4 0.0 S 14.5 0.0
15:55 26.0 63.0 1018.4 0.0 S 17.7 0.0
16:00 25.9 65.0 1018.6 8.0 S 17.7 0.0
16:05 25.6 65.0 1018.6 8.0 S 17.7 0.0
16:10 25.6 65.0 1018.6 3.2 SSW 17.7 0.0
16:15 25.4 66.0 1018.6 14.5 SE 19.3 0.0
16:20 25.3 65.0 1018.6 0.0 SSE 19.3 0.0
16:25 25.3 66.0 1018.8 12.9 SE 14.5 0.0
16:30 25.1 66.0 1018.8 0.0 SSE 16.1 0.0
16:35 25.1 66.0 1018.8 0.0 S 16.1 0.0
16:40 25.1 67.0 1018.9 9.7 SSE 17.7 0.0
16:45 25.2 67.0 1018.9 6.4 S 17.7 0.0
16:50 25.2 68.0 1018.9 3.2 S 16.1 0.0
16:55 25.3 68.0 1019.0 0.0 SE 14.5 0.0
17:00 25.2 68.0 1019.0 11.3 SE 14.5 0.0
17:05 25.0 68.0 1018.9 0.0 ENE 14.5 0.0
17:10 24.9 69.0 1018.8 0.0 ESE 11.3 0.0
17:15 24.8 69.0 1018.9 0.0 SSE 3.2 0.0
17:20 24.4 70.0 1018.8 0.0 S 0.0 0.0
17:25 24.3 70.0 1018.9 0.0 SSE 0.0 0.0
17:30 24.1 71.0 1018.9 0.0 SE 0.0 0.0
17:35 23.9 72.0 1018.8 0.0 S 0.0 0.0
17:40 23.8 73.0 1018.8 0.0 S 0.0 0.0
17:45 23.6 74.0 1018.9 0.0 SSE 0.0 0.0
17:50 23.4 74.0 1018.8 0.0 SSW 0.0 0.0
17:55 23.3 74.0 1018.9 1.6 SE 8.0 0.0
18:00 23.1 74.0 1018.9 0.0 SSW 8.0 0.0
18:05 22.9 75.0 1019.0 0.0 S 6.4 0.0
18:10 22.9 74.0 1019.0 0.0 S 9.7 0.0
18:15 22.7 75.0 1019.0 0.0 S 4.8 0.0
18:20 22.6 75.0 1018.9 0.0 S 0.0 0.0
18:25 22.6 75.0 1019.1 0.0 S 0.0 0.0
18:30 22.5 76.0 1019.1 0.0 S 0.0 0.0
18:35 22.3 75.0 1019.2 0.0 S 0.0 0.0
18:40 22.2 76.0 1019.3 0.0 S 0.0 0.0
18:45 22.1 77.0 1019.4 0.0 W 0.0 0.0
18:50 21.9 77.0 1019.4 0.0 WNW 0.0 0.0
18:55 21.8 78.0 1019.5 0.0 WNW 0.0 0.0
19:00 21.6 79.0 1019.6 0.0 WNW 0.0 0.0
19:05 21.4 79.0 1019.8 0.0 W 0.0 0.0
19:10 21.2 80.0 1019.7 0.0 WNW 0.0 0.0
19:15 21.0 81.0 1019.7 0.0 WNW 0.0 0.0
19:15 20.8 81.0 1019.7 0.0 WNW 0.0 0.0
19:25 20.7 81.0 1019.8 0.0 WNW 0.0 0.0
19:30 20.6 82.0 1019.9 0.0 WNW 0.0 0.0
19:35 20.5 82.0 1019.9 0.0 WNW 0.0 0.0
19:40 20.4 83.0 1019.9 0.0 WNW 0.0 0.0
19:45 20.3 83.0 1019.9 0.0 W 0.0 0.0
19:50 20.1 83.0 1019.9 0.0 W 1.6 0.0
19:55 19.9 84.0 1020.1 0.0 W 1.6 0.0
20:00 19.8 84.0 1020.3 0.0 W 0.0 0.0
20:05 19.7 84.0 1020.1 3.2 W 11.3 0.0
Màxima 28.7 87.0 1020.3 17.7 S 22.5 0.0
Mínima 14.4 51.0 1017.8
Total 0.0